Location: *
(46.3500°N, 10.9000°E)
Time: 21:19:43
(UTC+00:00)

A-11 Canister half - Pass Details

Date: 25 April 2021
Orbit: 1526 x 1682 km, 47.3° (Epoch: 13 May)

Event Time Altitude Azimuth Distance (km) Brightness Sun altitude
Rises 13:31:59 0° 235° (SW) 4,827 12.3 46.2°
Reaches altitude 10° 13:35:05 10° 233° (SW) 3,862 12.1 45.7°
Maximum altitude 13:44:54 70° 153° (SSE) 1,756 10.1 44.4°
Drops below altitude 10° 13:54:58 10° 73° (ENE) 3,949 10.8 42.9°
Sets 13:58:10 0° 71° (ENE) 4,940 11.2 42.4°
